AO-07 1 07530U 74089B 26070.95091428 -.00000029 00000-0 10895-3 0 9994 2 07530 101.9968 83.1651 0011959 317.7440 111.2183 12.53696356348330 AO-27 1 22825U 93061C 26070.73485759 .00000128 00000-0 65791-4 0 9994 2 22825 98.6978 138.1464 0008864 33.4348 326.7392 14.30913838693062 FO-29 1 24278U 96046B 26070.56893162 -.00000001 00000-0 35696-4 0 9998 2 24278 98.5378 292.7343 0349744 349.8942 9.5289 13.53268791459966 ISS 1 25544U 98067A 26070.83651154 .00008338 00000-0 16153-3 0 9999 2 25544 51.6324 61.7417 0007973 182.2925 177.8028 15.48586968556665 SO-50 1 27607U 02058C 26070.70818920 .00002119 00000-0 26699-3 0 9995 2 27607 64.5526 70.5294 0075293 280.3435 78.9189 14.82793455250007 AO-73 1 39444U 13066AE 26070.89721230 .00008095 00000-0 52244-3 0 9999 2 39444 97.8190 40.4734 0037596 171.2613 188.9277 15.07956089664999 IO-86 1 40931U 15052B 25151.18580175 .00001241 00000-0 78118-4 0 9996 2 40931 6.0006 24.0987 0012733 338.8432 21.1169 14.78805930523159 CAS-2T 1 41847U 16066G 26070.92363093 .00001455 00000-0 21146-3 0 9995 2 41847 98.3882 147.7490 0343591 64.7345 298.9035 14.44476391490754 AO-91 1 43017U 17073E 26070.58199020 .00012195 00000-0 55206-3 0 9991 2 43017 97.4852 299.8374 0154342 305.5772 53.1155 15.10924091450643 PO-101 1 43678U 18084H 26070.99035950 .00005674 00000-0 46092-3 0 9990 2 43678 98.1042 263.1213 0012057 120.0711 240.1708 14.99980119401647 QO-100 1 43700U 18090A 26070.50708985 .00000146 00000-0 00000-0 0 9990 2 43700 0.0195 154.2284 0001080 209.2710 14.0290 1.00276757 26691 JO-97 1 43803U 18099AX 26070.12486191 .00020476 00000-0 69848-3 0 9999 2 43803 97.4247 132.8012 0004815 251.2378 108.8340 15.30365477398618 RS-44 1 44909U 19096E 26070.98352919 .00000035 00000-0 95817-4 0 9994 2 44909 82.5206 44.2894 0217837 11.9654 348.6505 12.79747487289912 CSS 1 48274U 21035A 26070.76324018 .00028963 00000-0 34031-3 0 9994 2 48274 41.4661 195.5440 0006800 284.6024 75.4061 15.60782980277934 HO-113 1 50466U 21131B 26070.93386233 .00000531 00000-0 17789-3 0 9995 2 50466 98.4952 163.8758 0004787 44.1983 315.9588 14.41254214221106 MO-122 1 60209U 24125G 26070.56797273 .00048962 00000-0 75901-3 0 9996 2 60209 97.2451 286.4317 0011341 215.5095 144.5405 15.53796943 94362 AO-123 1 61781U 24199AY 26070.96420025 .00009305 00000-0 28349-3 0 9997 2 61781 97.3154 300.5288 0012646 301.2892 58.7112 15.34114474119014 TEVEL2-4 1 63213U 25052D 26070.26283112 .00022478 00000-0 75140-3 0 9992 2 63213 97.4012 326.6885 0004787 92.0880 268.0909 15.31001198 55116 TEVEL2-5 1 63214U 25052E 26070.60072587 .00022941 00000-0 76930-3 0 9996 2 63214 97.4013 326.9978 0004725 92.0948 268.0834 15.30895394 55161 TEVEL2-6 1 63215U 25052F 26070.67596845 .00021998 00000-0 73874-3 0 9997 2 63215 97.4015 327.0588 0004832 92.1696 268.0098 15.30856593 55174 TEVEL2-1 1 63217U 25052H 26070.28245717 .00020949 00000-0 71335-3 0 9990 2 63217 97.3989 326.3967 0004810 102.4753 257.7026 15.30417802 55108 TEVEL2-3 1 63218U 25052J 26070.21461630 .00021328 00000-0 72542-3 0 9991 2 63218 97.3994 326.3408 0004877 102.9542 257.2243 15.30451026 55099 TEVEL2-2 1 63219U 25052K 26070.93694528 .00017991 00000-0 61271-3 0 9993 2 63219 97.3987 327.0500 0004773 102.2384 257.9392 15.30445156 55207 TEVEL2-9 1 63237U 25052AD 26070.27330050 .00019957 00000-0 71604-3 0 9992 2 63237 97.4054 325.9550 0008080 120.1244 240.0797 15.28701851 55053 TEVEL2-7 1 63238U 25052AE 26070.62516123 .00019636 00000-0 70896-3 0 9995 2 63238 97.4059 326.2566 0008262 119.2981 240.9086 15.28497939 55104 TEVEL2-8 1 63239U 25052AF 26070.17394072 .00020074 00000-0 72555-3 0 9995 2 63239 97.4055 325.7895 0008154 121.0065 239.1977 15.28458723 55033 SO-125 1 63492U 25052BN 26070.68979078 .00149747 00000-0 19992-2 0 9991 2 63492 97.3942 331.2100 0009076 107.6248 252.6000 15.57522225 55450 Lobachevsky 1 67284U 25313AN 26070.95069274 .00006467 00000-0 28735-3 0 9999 2 67284 97.3989 147.2101 0010301 349.2340 10.8674 15.21822716 11160 QMR-KWT-2 1 67291U 25313AV 26070.90397958 .00015578 00000-0 65303-3 0 9990 2 67291 97.3999 147.2925 0008571 344.2414 15.8555 15.23564611 11168 NO-44 1 26931U 01043C 26070.86332469 .00000150 00000-0 86947-4 0 9999 2 26931 67.0503 135.9916 0007010 265.1305 94.8997 14.31913406276517 IO-117 1 53106U 22080B 25167.32760529 -.00000003 00000-0 00000-0 0 9996 2 53106 70.1560 65.9804 0008358 24.6429 335.4629 6.42557409 68669 SONATE-2 1 59112U 24043Q 26070.91681292 .00035580 00000-0 60022-3 0 9998 2 59112 97.5394 215.9533 0007858 196.5431 163.5565 15.51546951112773 TEN-KOH2 1 98542U 25241A 26068.00000000 .00001847 0-0 77728-4 0 00002 2 98542 51.6328 76.1223 0005874 167.3547 35.4429 15.22787692000302